Theta_e
299 299 301 303 300 292 296 297 294 297 299 300 295 297 295 293 289 288 294 298 301 305 309 313 316 317 319 320 321 322 323 326 327 328 330 332 334 334 333 333 333 333 334 336 338 338 339 340 339 339 340 340 341 342 342 341 342 342 342 344 344 347 348
303 302 304 303 301 298 297 293 296 302 303 299 294 288 286 284 285 285 294 295 295 294 296 309 313 314 316 318 319 321 322 323 325 327 329 331 333 334 335 335 335 335 334 335 337 339 339 340 340 339 340 341 342 342 343 341 342 341 342 343 343 345 347
300 300 301 301 304 304 299 298 303 299 294 293 292 290 285 285 284 283 287 294 296 295 296 304 311 312 315 317 318 318 322 323 323 325 328 330 332 333 332 333 335 336 336 335 337 339 340 341 341 340 341 342 342 342 343 343 342 342 343 343 344 345 347
298 297 297 294 297 305 304 302 300 302 296 290 292 292 289 289 285 285 285 290 292 300 299 307 311 312 313 315 316 318 319 322 323 325 326 328 330 331 332 332 335 336 339 339 337 336 337 338 339 341 341 342 342 342 343 343 344 344 344 344 345 344 345
296 296 295 295 297 296 299 296 295 298 298 300 299 297 294 291 285 284 283 285 289 296 303 311 312 313 315 317 318 317 319 321 324 325 326 328 330 330 331 332 334 335 336 337 337 338 339 339 339 340 341 341 342 343 342 344 343 342 343 344 344 345 346
294 293 295 299 299 301 299 297 295 298 296 294 292 289 295 294 290 284 285 287 290 297 312 316 316 317 318 319 319 319 320 323 322 323 326 329 328 330 332 333 334 335 336 337 338 339 339 338 338 338 339 341 342 342 343 343 343 343 343 344 345 345 346
295 296 298 300 300 301 299 299 298 298 296 294 287 286 291 294 296 295 290 289 291 301 311 317 318 318 320 321 321 320 321 321 322 323 326 329 330 331 331 334 335 335 335 336 337 338 338 339 338 339 338 339 341 342 343 344 344 344 344 344 346 346 346
294 299 299 302 303 303 302 301 300 298 297 295 294 289 293 292 294 292 292 289 291 300 311 316 316 318 319 317 320 320 321 322 322 324 327 327 328 329 330 332 335 336 335 337 336 336 337 338 338 338 338 338 340 342 343 344 344 345 345 345 346 346 346
289 293 294 297 298 301 298 299 301 300 301 300 298 296 294 293 294 292 290 285 289 299 310 313 316 318 318 319 320 321 321 321 322 323 325 326 326 327 328 329 332 335 336 335 336 337 337 337 338 339 338 338 339 341 343 343 344 346 345 346 346 346 346
284 285 284 285 290 296 296 301 302 303 301 300 298 297 292 287 293 294 290 289 293 299 304 308 311 312 313 314 315 320 320 320 321 321 324 325 325 325 326 328 330 332 334 335 336 337 337 338 338 338 339 339 339 341 343 344 344 346 346 346 346 346 346
289 292 290 293 299 292 293 296 299 300 302 300 298 294 290 290 290 294 293 293 294 297 302 306 308 309 311 312 314 319 320 319 319 320 322 325 324 325 327 328 330 332 333 333 335 337 338 339 339 339 339 339 339 340 342 344 345 346 347 346 346 346 347
294 294 293 295 302 294 294 294 297 297 300 299 298 295 291 294 296 289 295 296 298 298 299 301 304 306 308 311 312 314 316 318 319 320 322 327 323 325 326 327 328 330 331 333 334 335 337 338 339 340 340 340 339 339 340 343 345 345 346 346 346 346 347
293 293 294 296 295 295 293 292 293 295 299 299 299 298 296 297 293 290 294 296 298 298 300 302 304 306 308 310 313 316 319 320 321 319 319 321 325 327 328 328 330 330 332 333 334 335 336 338 338 339 339 339 340 340 341 344 345 345 347 347 346 346 347
293 293 292 294 293 295 294 293 292 292 297 300 301 299 299 300 296 296 296 297 300 302 302 304 309 312 313 319 320 320 319 320 321 320 318 324 328 329 330 330 331 331 332 333 334 336 336 337 338 339 339 339 339 339 340 343 344 346 347 346 346 346 346
294 294 297 294 292 293 294 294 296 294 295 299 301 301 301 303 299 303 299 299 298 303 305 312 317 317 316 316 316 317 319 321 321 319 319 324 327 329 331 330 330 331 333 334 334 334 334 336 337 338 339 339 340 340 341 342 343 346 347 346 346 346 346
291 293 293 293 294 294 293 294 296 296 297 297 298 299 302 300 298 300 301 299 299 303 307 315 315 314 315 315 316 318 321 321 320 320 319 320 322 326 329 330 330 331 331 332 332 333 335 336 337 337 338 340 340 340 341 341 342 346 346 346 346 346 347
287 292 294 293 289 293 290 292 296 296 297 297 298 303 305 304 302 300 298 297 302 303 312 314 313 314 313 313 315 316 318 320 319 316 318 320 323 325 328 329 330 330 330 331 332 332 334 336 337 338 339 339 340 341 341 342 343 344 345 346 346 346 347
287 291 292 293 290 284 285 292 298 299 299 300 300 300 303 306 303 300 302 303 306 312 313 312 312 313 316 317 318 318 319 321 323 325 326 326 327 327 327 328 328 329 329 330 331 333 333 334 337 340 342 341 341 343 343 343 342 342 343 344 346 347 347
289 290 290 290 283 284 291 298 302 300 302 304 302 306 308 309 310 310 309 311 313 313 313 314 315 316 319 321 322 323 323 325 325 325 326 326 326 327 327 327 329 330 330 331 330 331 332 334 336 337 338 341 343 343 344 343 343 342 342 343 344 346 347
288 287 284 281 282 289 296 302 307 311 309 309 304 302 304 307 310 309 309 310 313 314 316 317 319 320 321 319 320 322 325 326 325 322 322 324 326 327 328 329 330 331 332 331 332 332 334 335 335 336 336 338 339 340 343 343 343 342 342 342 342 344 345
288 286 285 286 290 295 301 300 305 305 302 302 297 294 297 305 308 311 310 311 313 315 317 318 318 317 315 310 313 316 323 324 323 323 322 324 328 329 330 331 331 333 333 332 333 334 334 333 332 332 333 333 334 335 337 341 342 342 342 341 341 342 344
288 287 286 286 287 285 290 297 302 304 306 303 301 300 298 304 307 313 313 313 314 314 315 317 316 309 308 303 306 314 321 324 324 325 327 329 331 331 331 332 332 332 332 332 331 331 330 330 330 331 331 331 330 331 332 335 339 341 341 340 341 342 342
287 286 282 281 284 286 291 297 300 304 306 305 301 296 291 296 307 315 316 314 313 314 314 315 312 307 302 300 303 311 320 326 328 329 329 331 330 330 330 330 330 330 330 329 329 329 328 328 329 331 330 330 329 329 330 331 334 337 340 341 341 341 342
289 286 284 284 286 290 299 298 302 306 306 302 300 291 288 298 310 317 317 315 313 312 312 312 311 306 301 303 306 316 326 328 329 328 328 327 327 327 328 330 330 329 328 325 325 326 327 327 329 329 329 328 328 328 330 331 331 332 336 341 342 343 343
292 292 285 285 289 297 301 302 303 306 306 303 291 286 293 300 309 317 318 315 314 314 313 314 310 312 309 310 318 326 328 327 326 328 328 327 327 327 327 327 330 325 324 324 325 326 327 327 327 328 328 327 327 329 330 330 330 332 336 341 343 342 342
289 288 287 286 287 294 301 304 307 307 302 292 287 296 299 305 311 317 319 316 314 315 316 315 311 310 315 323 326 326 327 327 327 327 327 326 326 325 327 327 326 324 323 324 325 325 325 325 326 326 326 325 327 328 329 329 332 334 336 339 341 340 340
288 285 286 286 285 297 306 306 305 306 298 295 297 302 307 311 315 317 318 317 315 316 314 314 314 320 323 324 325 326 327 326 325 325 325 322 322 321 321 321 324 325 323 323 323 323 323 324 324 325 325 325 328 332 333 334 336 336 337 340 340 340 340
287 286 285 285 294 300 307 307 302 303 302 302 304 310 309 312 312 317 317 316 316 317 316 314 316 321 322 323 324 324 325 326 324 324 322 320 320 320 321 321 322 324 322 322 322 322 322 322 323 324 325 325 329 331 332 336 337 337 338 339 339 338 339
291 288 291 295 298 300 306 306 304 303 307 308 311 311 312 312 313 314 317 318 317 318 317 317 318 319 322 323 323 323 324 324 323 321 319 318 318 318 318 318 322 322 321 320 321 321 321 322 323 324 325 325 327 327 331 335 338 338 337 338 337 336 337
300 299 299 303 305 307 308 310 311 309 313 313 311 312 312 313 313 316 317 317 318 318 318 317 318 320 321 322 322 323 323 323 321 319 316 315 315 315 316 316 320 320 321 320 319 319 320 321 322 324 324 325 324 325 329 332 333 333 334 334 335 334 334
297 294 300 305 306 309 312 312 314 314 313 312 312 313 312 313 315 317 317 318 319 319 318 319 317 318 321 322 323 323 321 318 316 315 314 314 314 313 313 316 319 318 318 317 318 319 318 320 321 322 323 324 324 326 327 328 329 330 330 329 329 329 330
295 296 302 308 310 311 311 311 312 313 314 314 314 314 314 315 317 318 317 318 318 319 318 318 318 318 320 321 320 319 316 315 314 313 313 312 312 313 314 316 317 316 317 317 318 318 317 319 321 322 322 322 323 324 326 327 327 326 326 326 325 325 326
305 308 309 310 310 309 311 313 312 312 312 314 316 317 317 318 319 318 318 317 319 320 318 318 319 319 320 322 320 317 313 313 312 312 312 312 312 313 314 315 317 316 318 318 318 318 318 319 321 321 322 322 323 323 324 325 327 325 325 325 324 323 323
300 302 304 307 303 301 305 310 313 314 314 316 317 317 317 318 319 319 319 317 317 317 318 319 320 320 319 320 318 316 314 313 312 311 311 312 313 316 317 316 317 319 320 318 318 318 318 320 321 322 321 322 322 322 322 324 325 324 325 323 322 321 321
299 305 307 310 308 308 311 312 313 314 316 317 317 317 317 316 317 319 319 317 316 317 317 319 321 319 319 317 316 314 313 312 312 311 311 313 315 316 316 315 318 321 319 319 318 319 320 321 322 321 321 321 321 321 321 322 323 323 323 322 321 321 321
305 306 307 311 309 309 311 313 314 317 316 318 316 315 316 317 318 318 318 319 318 315 316 318 320 320 319 317 316 315 315 314 313 312 312 311 313 318 320 318 320 319 319 319 320 320 321 321 321 321 321 322 322 322 322 322 322 321 321 320 319 319 319
306 308 309 311 310 313 314 314 316 317 319 319 318 318 317 317 317 319 318 315 317 319 318 318 318 319 318 316 316 315 315 315 315 314 315 318 321 320 320 320 320 320 320 321 320 320 320 320 320 322 322 322 323 324 323 323 322 321 320 320 319 319 320
Wind_Speed
2 1 3 1 2 1 2 2 1 1 2 8 5 2 2 2 4 3 1 5 3 6 2 1 4 3 5 5 5 5 5 2 2 3 4 6 7 6 7 8 9 10 9 10 11 12 11 11 11 12 12 11 12 11 11 11 11 10 11 10 10 8 7
3 2 5 4 3 4 5 2 5 1 2 5 4 2 2 3 2 3 1 3 4 2 3 3 1 3 3 5 6 3 4 5 3 2 3 5 6 6 4 3 4 7 9 11 11 11 12 13 13 12 12 12 11 11 12 13 11 11 11 11 10 9 8
4 4 1 5 3 2 2 2 5 1 0 0 3 3 0 0 1 2 1 1 3 4 4 0 0 0 2 4 5 4 5 5 3 3 3 3 3 3 3 3 2 2 3 4 5 5 6 9 11 12 12 11 10 10 10 12 13 14 13 10 10 8 8
2 3 3 2 2 6 4 3 3 0 4 2 2 1 2 4 1 2 4 3 2 5 4 5 3 3 2 2 3 3 3 3 3 3 3 2 4 3 2 4 5 6 6 8 9 10 12 12 10 6 7 9 11 11 11 11 10 9 9 10 9 10 10
2 2 1 5 6 5 1 2 1 2 2 2 5 2 1 1 4 3 1 3 4 6 6 6 5 5 4 3 1 2 3 3 4 4 5 4 3 2 5 6 4 4 7 9 10 10 10 11 8 4 5 9 11 10 11 11 11 11 11 11 10 10 9
2 3 2 0 3 5 8 8 6 8 6 3 1 2 1 2 2 2 2 4 7 9 2 5 5 4 3 3 2 2 2 2 2 4 5 5 4 3 4 5 5 6 6 8 8 8 8 9 8 8 6 6 8 10 11 11 10 10 11 11 10 10 9
1 3 5 3 4 1 2 3 2 4 3 6 5 1 2 1 0 3 2 1 5 2 1 1 3 3 4 1 2 2 2 0 1 1 3 4 2 3 5 4 3 4 7 8 9 10 8 8 8 9 7 8 9 9 9 9 10 11 11 11 11 10 9
6 4 1 3 4 4 2 4 2 3 2 3 6 3 4 6 2 1 1 1 5 3 2 1 1 1 2 2 2 3 3 0 1 1 3 4 6 5 5 3 2 2 3 4 7 9 10 9 9 8 8 7 9 9 9 8 11 12 10 9 9 9 10
5 5 4 2 3 3 1 1 1 2 3 6 3 5 1 3 5 5 6 2 2 2 1 1 1 2 2 3 3 2 4 0 0 1 2 3 5 5 5 5 3 3 2 3 5 8 11 10 10 10 9 8 9 10 10 10 11 10 10 9 9 9 10
3 1 1 5 4 4 1 1 1 0 5 8 3 1 0 1 0 4 2 4 8 8 4 2 1 1 3 4 5 3 2 0 1 1 2 2 2 3 5 5 5 3 1 1 2 5 6 8 11 11 9 7 8 9 11 11 11 9 10 9 9 10 10
9 9 6 3 2 2 1 1 1 2 3 3 4 5 4 5 4 5 6 5 2 5 3 3 4 3 5 5 4 3 2 1 1 0 2 2 2 2 3 5 5 3 2 0 1 2 3 5 6 8 9 9 7 7 9 10 11 11 10 9 9 10 10
7 7 2 2 1 2 1 1 1 2 4 4 5 5 5 4 9 3 5 5 2 7 5 6 6 5 4 5 4 3 2 1 1 2 2 4 3 4 3 4 5 4 2 2 2 1 3 4 4 4 6 6 7 7 9 9 9 9 9 10 9 9 9
2 3 1 1 1 1 3 4 2 3 5 5 6 6 4 7 3 5 2 5 4 6 6 5 5 3 3 3 4 2 1 1 2 3 3 3 3 4 4 4 4 4 4 3 2 2 3 4 5 5 5 6 7 7 6 5 7 9 9 9 10 11 10
1 2 4 2 4 1 1 2 5 4 5 10 11 5 5 8 3 3 3 7 9 7 4 3 0 1 4 2 2 2 3 2 2 2 2 2 2 4 5 5 5 5 4 4 4 3 3 4 5 6 7 6 7 8 8 7 7 7 8 10 10 11 11
0 2 2 2 2 6 1 3 1 2 5 3 1 1 2 1 1 1 3 2 6 6 5 2 2 4 4 5 4 2 2 1 1 2 2 2 2 2 3 3 5 5 6 5 4 4 4 4 4 5 6 6 7 8 8 7 7 7 7 9 10 11 12
0 1 1 2 3 2 0 1 2 2 4 2 4 4 6 5 5 2 2 2 6 6 1 2 3 4 5 4 3 2 1 1 2 2 3 3 4 3 4 5 5 5 7 7 7 7 6 5 5 4 4 5 6 8 8 8 7 5 7 8 10 11 11
3 1 2 2 3 1 3 2 3 4 2 1 0 0 3 4 7 4 3 7 4 3 2 3 2 4 2 2 2 2 1 1 2 4 4 5 5 3 4 5 5 5 6 6 7 7 7 5 5 5 5 4 6 6 7 8 7 7 8 9 9 10 10
4 0 1 1 1 1 3 3 1 5 4 6 5 4 6 3 4 3 4 3 2 1 1 3 1 3 2 2 2 3 4 4 4 4 5 5 5 5 4 5 6 6 5 6 6 7 7 6 5 5 5 6 6 6 7 6 7 8 8 9 9 10 10
2 0 1 2 2 7 4 4 4 5 4 2 4 1 0 1 2 2 1 0 0 2 3 3 2 2 3 3 3 3 4 3 3 3 4 5 4 5 6 7 7 7 7 8 8 8 7 6 5 5 5 5 5 6 5 6 7 8 8 9 9 10 10
3 3 3 2 5 4 5 5 3 1 5 3 4 2 0 3 4 3 2 5 4 3 3 2 2 3 2 1 3 3 3 4 4 3 4 4 5 6 5 6 7 7 8 8 8 9 7 7 7 5 6 6 6 7 6 7 6 7 8 9 10 9 10
3 3 6 6 3 4 1 3 1 4 4 5 3 2 4 4 4 6 2 2 3 3 3 2 2 1 1 2 4 1 4 4 4 5 5 5 6 6 6 6 8 7 8 8 8 7 7 7 7 7 7 7 7 8 8 7 7 7 8 10 10 10 10
4 5 1 1 0 3 7 8 5 1 1 4 3 4 2 3 5 4 5 6 5 5 3 3 1 1 2 3 2 1 1 3 4 4 5 4 4 5 6 7 7 7 7 6 6 7 9 8 7 7 7 7 8 9 8 8 8 9 9 10 9 9 9
3 2 4 3 4 7 8 8 6 1 2 4 2 3 2 3 6 7 6 4 5 7 6 4 2 2 0 4 5 2 2 3 4 3 4 3 4 5 6 6 8 8 6 7 8 8 8 10 9 8 8 8 8 10 9 9 9 10 10 9 8 9 8
3 6 4 4 4 2 1 6 1 2 5 4 2 1 4 3 5 7 5 5 7 5 5 6 5 6 2 5 4 3 5 3 2 2 3 3 3 5 5 6 5 6 8 9 8 8 8 9 9 9 9 8 9 9 10 9 10 11 11 8 7 7 8
2 4 1 2 3 4 4 2 3 2 2 2 3 6 4 3 6 6 6 6 5 7 7 6 4 8 4 1 4 6 5 4 2 1 2 5 5 6 5 6 7 6 6 5 7 8 7 8 8 7 7 8 10 10 10 9 12 11 10 8 7 7 7
6 5 5 6 3 6 6 0 5 5 4 2 6 8 3 8 6 5 6 6 5 7 9 7 4 1 3 3 5 6 6 6 6 5 6 5 5 3 4 5 5 5 5 6 7 7 8 9 8 7 7 8 10 11 11 12 13 11 10 9 7 7 8
3 2 3 2 1 2 7 7 3 0 2 6 5 2 1 3 6 8 5 5 6 7 4 2 4 5 5 6 7 6 5 5 5 6 5 4 3 4 4 5 5 5 5 6 6 7 7 8 8 8 8 10 10 10 12 13 12 10 10 9 9 9 9
6 3 3 3 7 3 7 10 8 6 6 3 6 6 4 1 3 6 6 4 6 7 6 8 6 6 7 5 6 5 5 5 4 4 2 2 3 4 4 3 4 4 4 5 6 7 7 7 7 7 7 9 8 7 8 8 7 6 7 8 8 9 9
4 4 6 6 3 4 5 2 2 4 4 4 8 6 7 6 5 3 4 7 6 6 7 8 9 7 7 7 7 6 6 6 5 5 1 1 2 3 4 4 4 3 4 5 6 6 6 8 7 8 8 9 8 9 9 7 2 6 8 8 8 9 8
2 3 4 2 1 0 2 3 1 1 1 1 3 6 4 3 4 8 7 6 6 6 8 9 5 8 8 8 7 6 7 6 3 1 1 1 3 3 4 4 5 4 4 4 5 6 7 8 9 8 8 7 9 9 8 7 6 5 3 5 8 8 7
2 2 2 3 1 2 0 1 0 1 2 4 4 3 3 4 5 5 1 5 7 9 8 9 9 8 9 9 8 7 5 4 2 1 0 1 3 4 4 3 3 4 4 4 6 7 9 9 9 8 9 8 8 8 9 8 8 8 8 8 8 6 6
3 1 3 5 4 4 3 2 4 4 3 2 3 2 2 3 3 3 3 4 5 6 6 6 9 9 9 10 7 6 5 4 3 1 0 1 3 3 2 2 3 4 4 5 6 7 8 8 8 8 8 9 9 9 8 8 8 10 11 10 9 10 10
3 3 3 3 1 2 1 2 3 2 3 4 3 4 5 6 7 5 3 0 6 7 7 6 7 9 8 9 8 7 4 4 3 2 1 1 1 2 4 3 3 4 5 6 6 6 7 7 7 8 9 9 9 10 9 8 8 11 12 12 11 13 11
1 5 4 4 4 3 4 5 5 3 3 4 6 5 5 6 7 6 7 4 2 2 6 8 8 9 8 7 7 6 6 5 4 3 2 1 2 3 2 2 4 5 7 6 6 6 7 7 7 8 10 10 10 10 9 8 9 11 11 12 13 12 11
3 5 5 4 0 3 8 6 5 3 3 5 7 6 7 4 4 7 9 6 3 3 2 3 7 8 8 8 6 6 5 5 4 4 4 3 2 3 2 4 6 6 5 5 6 8 7 7 7 9 9 9 9 10 9 8 8 11 12 11 10 10 10
5 6 5 7 4 5 3 2 4 3 3 5 4 3 4 6 7 5 6 7 8 4 3 3 3 7 7 8 8 8 5 5 5 3 3 2 2 2 2 3 4 4 4 6 7 6 6 7 8 8 8 9 9 8 9 9 8 10 11 11 11 10 10
4 1 2 5 3 1 2 3 3 2 2 4 5 5 6 6 4 4 6 4 4 9 7 5 3 5 9 8 6 8 6 5 5 5 4 2 4 4 4 5 5 4 4 4 5 6 7 8 8 7 8 8 8 7 8 9 8 10 11 11 11 11 10
Wind_Direction
47 165 156 347 104 171 240 70 155 211 127 101 95 79 37 83 48 252 189 327 308 300 328 240 335 14 350 11 19 15 359 351 127 202 222 217 211 210 207 201 200 198 196 195 194 192 193 192 191 192 191 188 190 188 188 194 196 191 191 193 193 191 186
14 335 103 111 20 141 82 88 220 149 124 121 123 159 341 55 171 255 44 209 292 20 251 322 347 26 329 354 360 345 35 21 19 297 228 216 214 207 212 228 205 203 201 199 198 197 194 194 193 193 195 192 192 189 188 190 192 194 197 194 192 189 187
266 342 38 24 2 53 149 191 180 99 245 232 330 92 347 259 269 281 309 289 256 185 242 353 238 351 323 327 329 5 12 12 2 339 309 253 242 227 199 199 203 214 225 237 225 220 217 211 201 196 195 191 189 194 194 192 194 198 195 194 193 192 190
321 359 72 189 308 9 47 69 53 50 97 152 102 186 179 115 251 53 288 41 253 215 223 182 179 220 229 271 337 345 326 315 315 315 318 278 210 182 145 147 150 144 126 103 85 67 45 1 330 284 217 195 195 195 193 196 202 199 196 196 193 195 196
35 148 1 182 159 119 32 47 343 21 34 206 111 43 74 184 167 178 202 330 282 263 210 167 200 209 217 196 235 274 291 305 313 317 311 311 298 192 186 191 170 142 141 145 149 149 150 184 200 255 264 224 207 197 198 196 195 196 198 200 196 201 194
221 228 235 211 189 166 163 159 200 162 120 112 127 262 4 68 96 203 123 248 269 272 184 188 176 215 211 223 196 257 272 290 316 322 319 312 311 278 255 224 158 154 158 162 164 160 154 195 201 197 199 226 231 211 204 199 199 199 199 201 200 201 199
248 261 281 264 187 101 160 127 173 134 119 106 97 123 251 48 35 104 150 102 276 246 250 220 205 196 216 218 173 239 269 257 277 279 287 303 290 290 299 300 272 212 176 173 170 163 168 192 203 208 203 194 211 221 213 208 201 205 201 203 201 198 199
303 324 316 64 74 100 72 26 77 109 158 180 165 168 174 139 153 73 19 229 252 288 341 331 266 254 263 274 191 235 278 133 276 306 342 336 338 338 345 334 318 306 294 226 173 172 183 191 201 211 214 207 199 205 208 210 213 209 204 203 200 199 201
337 345 352 5 337 60 92 153 71 89 88 68 114 109 50 95 216 161 122 236 293 273 332 345 1 347 314 291 280 198 258 117 142 333 333 330 332 338 345 344 334 328 345 263 245 197 187 196 201 206 212 208 201 200 195 203 218 212 209 202 197 201 202
149 191 256 251 260 215 261 137 79 143 118 133 118 126 45 107 264 124 133 252 253 274 301 283 265 353 302 275 267 286 211 259 71 303 309 325 340 336 325 320 328 336 32 344 308 289 265 217 203 212 213 214 210 203 201 196 204 206 208 203 202 200 202
185 200 209 252 125 61 85 293 117 178 86 69 90 99 97 203 192 182 227 181 280 318 289 267 265 220 232 259 267 264 303 13 100 258 296 319 329 334 330 311 308 312 341 23 244 277 275 287 259 238 215 213 214 208 207 203 201 198 198 200 204 203 201
195 178 193 203 183 142 225 111 262 162 144 150 127 151 216 167 107 289 259 194 161 260 268 260 261 254 256 265 263 280 283 338 5 291 312 355 354 5 355 358 347 339 325 333 347 217 242 268 286 265 252 240 227 217 211 206 202 200 195 192 199 206 205
182 191 230 130 84 121 175 189 208 252 168 159 176 223 189 139 141 198 260 165 188 256 230 231 225 196 200 227 259 270 313 54 15 10 18 15 355 345 8 344 334 323 324 318 268 270 239 216 220 242 249 243 242 237 234 225 205 204 196 193 195 200 204
99 172 212 226 148 116 112 228 220 236 168 203 207 202 182 179 183 206 170 172 219 236 252 237 299 168 150 143 136 78 56 41 41 23 339 14 25 5 348 347 329 310 301 298 303 290 266 244 232 218 219 231 236 237 228 222 220 213 192 199 197 197 203
342 322 59 114 119 135 222 258 345 251 225 245 265 109 180 262 28 98 112 145 262 265 204 168 150 124 100 66 52 82 132 109 34 7 317 316 313 311 315 328 323 318 319 326 321 314 301 285 264 250 238 223 222 236 235 229 228 217 200 205 205 202 204
310 319 81 44 44 54 141 330 290 119 136 168 207 186 200 156 200 156 142 297 275 274 264 143 104 86 91 113 132 121 99 21 354 307 294 288 278 291 306 313 318 324 329 326 327 324 320 313 296 268 258 246 232 229 224 224 226 222 218 212 210 211 211
241 262 39 91 73 54 351 296 246 198 237 206 218 308 180 195 148 125 183 233 226 248 285 118 55 100 103 104 152 159 234 248 235 236 248 264 274 301 309 306 306 312 309 313 311 313 311 311 309 295 269 256 248 247 239 227 209 208 215 219 215 215 213
226 300 354 98 99 202 234 232 194 162 196 178 164 213 200 205 152 192 189 213 263 282 102 121 106 86 108 155 219 200 188 178 219 265 281 278 299 317 290 282 291 292 295 296 293 292 295 292 292 292 290 267 254 248 245 242 224 222 215 216 217 220 216
177 57 29 117 221 236 239 300 270 215 236 209 173 91 176 235 268 288 317 327 240 217 159 151 138 135 141 171 186 210 205 193 210 235 265 301 295 293 298 302 305 300 299 295 296 301 298 305 310 315 307 298 284 266 248 242 229 231 227 223 217 215 214
73 64 72 122 237 240 294 297 332 177 111 127 98 54 331 235 208 170 184 213 206 141 103 88 136 134 161 238 237 217 208 202 205 212 242 254 275 284 281 289 286 286 290 291 295 297 303 311 316 314 306 312 308 292 276 250 235 224 230 230 226 216 216
169 191 161 210 286 331 333 354 231 187 153 177 149 174 265 221 185 176 173 176 171 124 121 125 137 271 204 43 4 310 198 201 215 216 230 229 248 264 277 280 288 294 293 295 303 313 318 323 322 318 315 313 301 295 288 273 250 234 221 229 230 219 215
123 130 83 342 73 210 270 236 266 255 199 132 172 108 274 276 224 192 150 176 164 134 131 131 228 12 51 348 296 293 279 228 224 235 247 253 264 276 287 290 291 290 291 309 325 326 321 319 315 308 307 302 299 291 284 277 263 249 236 227 223 225 221
85 63 132 199 169 241 208 234 230 262 178 149 127 62 302 266 188 194 168 158 172 162 155 168 98 64 120 248 250 256 237 229 208 181 216 219 262 268 270 276 284 290 322 331 323 325 322 317 319 314 305 297 288 283 278 276 270 262 247 235 223 216 217
187 146 140 217 202 195 244 221 250 193 126 104 65 297 279 247 197 177 158 163 178 180 155 140 111 128 187 245 251 201 194 193 202 202 214 232 270 278 274 272 287 325 334 332 327 323 320 314 316 310 305 296 284 274 267 262 263 258 255 246 227 215 195
155 151 233 339 301 266 268 248 212 149 178 83 116 194 230 227 173 182 169 182 178 153 151 162 142 224 183 202 170 154 159 141 139 154 239 225 223 253 293 319 334 340 329 320 316 317 317 314 308 302 297 294 286 272 262 256 249 251 253 249 233 207 186
171 186 147 213 233 237 184 264 141 168 107 170 202 232 212 152 175 184 177 177 181 167 169 185 195 199 204 163 149 167 175 179 174 193 224 255 278 325 354 340 346 326 326 329 324 324 321 316 313 305 297 287 282 273 269 260 255 248 236 229 203 180 178
70 44 85 51 169 247 148 133 62 71 147 230 205 146 301 211 161 164 195 184 189 170 180 164 151 141 159 167 175 183 169 177 188 206 232 256 298 325 333 337 337 345 333 327 325 322 321 318 314 311 302 297 286 276 265 259 261 246 225 209 184 177 177
150 135 139 194 214 202 189 153 178 205 198 189 161 140 137 226 159 174 173 214 190 189 158 160 159 165 163 177 170 161 167 195 228 239 286 342 350 339 321 316 333 354 336 329 328 329 323 319 317 316 312 308 305 305 301 302 257 229 199 176 169 168 176
133 193 209 245 228 209 224 156 165 208 225 172 168 145 149 166 223 174 166 203 202 182 152 148 153 164 186 175 172 165 183 195 211 219 272 358 307 298 314 324 347 359 344 341 332 329 331 330 332 333 330 329 338 351 336 327 195 156 157 161 161 166 172
248 246 201 257 276 228 243 230 206 187 179 207 143 136 126 228 170 172 185 194 173 152 147 132 174 182 181 173 181 182 188 205 215 135 57 357 321 343 7 357 356 355 344 350 352 344 348 349 349 345 343 350 5 352 353 13 26 52 87 153 159 158 153
113 234 334 2 303 322 296 251 133 231 170 175 174 162 164 167 162 178 256 156 162 162 161 161 162 179 178 175 174 176 184 193 207 128 38 322 340 8 17 338 3 11 11 9 8 8 8 358 356 352 353 4 9 4 18 18 31 44 52 55 59 63 80
145 233 294 291 270 243 260 214 172 171 182 145 145 152 154 131 119 130 151 118 121 147 157 163 155 164 172 169 170 175 184 184 177 164 26 328 6 358 352 8 30 35 30 29 20 22 21 4 359 2 9 12 10 13 17 20 47 62 54 55 60 64 67
287 292 277 278 338 354 325 272 233 230 190 151 119 108 116 120 114 110 90 148 170 166 164 155 145 153 176 173 170 170 164 156 161 180 243 329 345 19 40 23 30 39 34 41 37 27 23 8 6 14 18 16 11 18 21 21 42 68 68 63 65 71 65
299 210 214 170 125 258 276 261 224 216 199 130 121 113 118 134 134 145 118 63 66 129 153 157 154 161 168 169 167 165 165 172 172 171 161 161 81 52 32 28 23 32 52 55 42 33 26 14 14 27 26 21 19 19 23 26 45 68 72 79 70 64 76
238 254 239 224 289 207 215 191 185 198 158 136 141 159 158 167 157 151 125 115 91 119 158 176 159 159 161 165 157 142 153 175 180 169 162 148 97 82 63 33 23 44 59 61 47 35 21 21 31 39 38 26 25 22 22 22 45 72 76 70 73 77 73
255 245 223 186 171 198 253 172 165 157 175 151 159 155 159 155 161 160 142 153 145 162 165 187 188 160 149 156 154 152 155 149 148 178 201 158 132 77 58 41 37 58 50 57 55 38 29 30 37 43 43 30 26 26 28 30 44 66 74 81 81 77 77
255 261 202 198 174 264 323 126 124 150 173 162 155 166 153 144 157 156 139 144 155 149 160 171 152 150 150 157 156 151 142 150 167 174 182 133 92 88 71 56 52 52 42 37 50 57 49 51 41 32 43 32 22 27 43 40 44 67 72 77 83 85 86